This is the latest recevied weather packets stored in our database for station/object KD7MPG-3. If no packets are shown the sender has not sent any weather packets the latest 10 day(s).
| Time | Temp. | Humidity | Pressure | Rain* | Wind** | Luminosity | Snow |
|---|---|---|---|---|---|---|---|
| 1777497107 | 18.33° C | 55% | 1030.9 hPa | 0 mm | - | - | - |
| 1777496806 | 18.33° C | 55% | 1030.9 hPa | 0 mm | - | - | - |
| 1777496506 | 18.33° C | 57% | 1030.9 hPa | 0 mm | - | - | - |
| 1777496207 | 18.33° C | 57% | 1030.9 hPa | 0 mm | - | - | - |
| 1777495903 | 18.33° C | 58% | 1031 hPa | 0 mm | - | - | - |
| 1777495602 | 17.78° C | 58% | 1031 hPa | 0 mm | - | - | - |
| 1777495300 | 17.78° C | 57% | 1031.1 hPa | 0 mm | - | - | - |
| 1777495000 | 17.78° C | 62% | 1031 hPa | 0 mm | - | - | - |
| 1777494700 | 17.22° C | 59% | 1031.1 hPa | 0 mm | - | - | - |
| 1777494401 | 17.22° C | 59% | 1031.1 hPa | 0 mm | - | - | - |
| 1777494104 | 17.22° C | 59% | 1031.1 hPa | 0 mm | - | - | - |
| 1777493796 | 17.22° C | 60% | 1031.2 hPa | 0 mm | - | - | - |
| 1777493497 | 17.22° C | 60% | 1031.2 hPa | 0 mm | - | - | - |
| 1777493196 | 16.67° C | 60% | 1031.2 hPa | 0 mm | - | - | - |
| 1777492894 | 16.67° C | 63% | 1031.3 hPa | 0 mm | - | - | - |
| 1777492595 | 16.67° C | 62% | 1031.3 hPa | 0 mm | - | - | - |
| 1777492289 | 16.67° C | 62% | 1031.6 hPa | 0 mm | - | - | - |
| 1777491988 | 16.67° C | 61% | 1031.5 hPa | 0 mm | - | - | - |
| 1777491688 | 16.67° C | 62% | 1031.5 hPa | 0 mm | - | - | - |
| 1777491388 | 16.67° C | 64% | 1031.5 hPa | 0 mm | - | - | - |
| 1777491088 | 16.67° C | 62% | 1031.7 hPa | 0 mm | - | - | - |
| 1777490789 | 16.11° C | 63% | 1031.7 hPa | 0 mm | - | - | - |
| 1777490487 | 16.11° C | 64% | 1031.9 hPa | 0 mm | - | - | - |
| 1777490184 | 16.11° C | 64% | 1032.1 hPa | 0 mm | - | - | - |
| 1777489885 | 15.56° C | 64% | 1032.1 hPa | 0 mm | - | - | - |
* Rain latest hour (hover to see other rain measurements)
** Current wind speed in m/s (hover to see current wind gust speed)